Time,TemperatureF,DewpointF,PressureIn,WindDirection,WindDirectionDegrees,WindSpeedMPH,WindSpeedGustMPH,Humidity,HourlyPrecipIn,Conditions,Clouds,dailyrainin,SoftwareType,DateUTC
2013-08-08 00:00:00,67.0,53.0,30.09,South,184,7.0,16.0,61,0.00,,,-99.99,,2013-08-08 06:00:00,
2013-08-08 00:43:00,67.0,53.0,30.09,South,184,7.0,16.0,61,0.00,,,-99.99,,2013-08-08 06:43:00,
2013-08-08 00:52:00,67.0,53.0,30.09,South,184,7.0,16.0,61,0.00,,,-99.99,,2013-08-08 06:52:00,
2013-08-08 01:00:00,65.0,55.0,30.07,SW,223,4.0,12.0,69,0.00,,,-99.99,,2013-08-08 07:00:00,
2013-08-08 01:32:00,65.0,55.0,30.07,SW,223,4.0,12.0,69,0.00,,,-99.99,,2013-08-08 07:32:00,
2013-08-08 01:43:00,65.0,55.0,30.07,SW,223,4.0,12.0,69,0.00,,,-99.99,,2013-08-08 07:43:00,
2013-08-08 01:53:00,65.0,55.0,30.07,SW,223,4.0,12.0,69,0.00,,,-99.99,,2013-08-08 07:53:00,
2013-08-08 03:00:00,66.0,54.0,30.05,ESE,103,3.0,9.0,67,0.00,,,-99.99,,2013-08-08 09:00:00,
2013-08-08 03:43:00,66.0,54.0,30.05,ESE,103,3.0,9.0,67,0.00,,,-99.99,,2013-08-08 09:43:00,
2013-08-08 03:53:00,66.0,54.0,30.05,ESE,103,3.0,9.0,67,0.00,,,-99.99,,2013-08-08 09:53:00,
2013-08-08 04:00:00,65.0,56.0,30.07,WNW,295,1.0,4.0,73,0.00,,,-99.99,,2013-08-08 10:00:00,
2013-08-08 04:33:00,65.0,56.0,30.07,WNW,295,1.0,4.0,73,0.00,,,-99.99,,2013-08-08 10:33:00,
2013-08-08 04:43:00,65.0,56.0,30.07,WNW,295,1.0,4.0,73,0.00,,,-99.99,,2013-08-08 10:43:00,
2013-08-08 04:52:00,65.0,56.0,30.07,WNW,295,1.0,4.0,73,0.00,,,-99.99,,2013-08-08 10:52:00,
2013-08-08 05:00:00,65.0,56.0,30.07,SSE,155,3.0,6.0,72,0.00,,,-99.99,,2013-08-08 11:00:00,
2013-08-08 05:43:00,65.0,56.0,30.07,SSE,155,3.0,6.0,72,0.00,,,-99.99,,2013-08-08 11:43:00,
2013-08-08 05:52:00,65.0,56.0,30.07,SSE,155,3.0,6.0,72,0.00,,,-99.99,,2013-08-08 11:52:00,
2013-08-08 06:00:00,65.0,55.0,30.06,SE,146,5.0,10.0,69,0.00,,,-99.99,,2013-08-08 12:00:00,
2013-08-08 06:43:00,65.0,55.0,30.06,SE,146,5.0,10.0,69,0.00,,,-99.99,,2013-08-08 12:43:00,
2013-08-08 06:53:00,65.0,55.0,30.06,SE,146,5.0,10.0,69,0.00,,,-99.99,,2013-08-08 12:53:00,
2013-08-08 07:00:00,65.0,55.0,30.05,SE,142,3.0,5.0,70,0.00,,,-99.99,,2013-08-08 13:00:00,
2013-08-08 07:32:00,65.0,55.0,30.05,SE,142,3.0,5.0,70,0.00,,,-99.99,,2013-08-08 13:32:00,
2013-08-08 07:43:00,65.0,55.0,30.05,SE,142,3.0,5.0,70,0.00,,,-99.99,,2013-08-08 13:43:00,
2013-08-08 07:53:00,65.0,55.0,30.05,SE,142,3.0,5.0,70,0.00,,,-99.99,,2013-08-08 13:53:00,
2013-08-08 08:00:00,65.0,56.0,30.05,West,266,2.0,7.0,73,0.00,,,-99.99,,2013-08-08 14:00:00,
2013-08-08 08:32:00,65.0,56.0,30.05,West,266,2.0,7.0,73,0.00,,,-99.99,,2013-08-08 14:32:00,
2013-08-08 08:43:00,65.0,56.0,30.05,West,266,2.0,7.0,73,0.00,,,-99.99,,2013-08-08 14:43:00,
2013-08-08 08:53:00,65.0,56.0,30.05,West,266,2.0,7.0,73,0.00,,,-99.99,,2013-08-08 14:53:00,
2013-08-08 09:00:00,66.0,57.0,30.06,SSW,212,2.0,4.0,72,0.00,,,-99.99,,2013-08-08 15:00:00,
2013-08-08 09:43:00,66.0,57.0,30.06,SSW,212,2.0,4.0,72,0.00,,,-99.99,,2013-08-08 15:43:00,
2013-08-08 09:53:00,66.0,57.0,30.06,SSW,212,2.0,4.0,72,0.00,,,-99.99,,2013-08-08 15:53:00,
2013-08-08 10:00:00,69.0,56.0,30.07,WSW,251,1.0,6.0,64,0.00,,,-99.99,,2013-08-08 16:00:00,
2013-08-08 10:32:00,69.0,56.0,30.07,WSW,251,1.0,6.0,64,0.00,,,-99.99,,2013-08-08 16:32:00,
2013-08-08 10:42:00,69.0,56.0,30.07,WSW,251,1.0,6.0,64,0.00,,,-99.99,,2013-08-08 16:42:00,
2013-08-08 10:52:00,69.0,56.0,30.07,WSW,251,1.0,6.0,64,0.00,,,-99.99,,2013-08-08 16:52:00,
2013-08-08 11:00:00,70.0,56.0,30.09,North,10,1.0,3.0,60,0.00,,,-99.99,,2013-08-08 17:00:00,
2013-08-08 11:32:00,70.0,56.0,30.09,North,10,1.0,3.0,60,0.00,,,-99.99,,2013-08-08 17:32:00,
2013-08-08 11:43:00,70.0,56.0,30.09,North,10,1.0,3.0,60,0.00,,,-99.99,,2013-08-08 17:43:00,
2013-08-08 11:52:00,70.0,56.0,30.09,North,10,1.0,3.0,60,0.00,,,-99.99,,2013-08-08 17:52:00,
2013-08-08 13:00:00,74.0,55.0,30.09,NNW,337,3.0,5.0,52,0.00,,,-99.99,,2013-08-08 19:00:00,
2013-08-08 13:32:00,74.0,55.0,30.09,NNW,337,3.0,5.0,52,0.00,,,-99.99,,2013-08-08 19:32:00,
2013-08-08 13:43:00,74.0,55.0,30.09,NNW,337,3.0,5.0,52,0.00,,,-99.99,,2013-08-08 19:43:00,
2013-08-08 13:58:00,74.0,55.0,30.09,NNW,337,3.0,5.0,52,0.00,,,-99.99,,2013-08-08 19:58:00,
2013-08-08 15:00:00,79.0,53.0,30.04,NW,326,3.0,8.0,40,0.00,,,-99.99,,2013-08-08 21:00:00,
2013-08-08 15:46:00,79.0,53.0,30.04,NW,326,3.0,8.0,40,0.00,,,-99.99,,2013-08-08 21:46:00,
2013-08-08 15:57:00,79.0,53.0,30.04,NW,326,3.0,8.0,40,0.00,,,-99.99,,2013-08-08 21:57:00,
2013-08-08 16:00:00,83.0,52.0,30.02,NNW,343,4.0,9.0,33,0.00,,,-99.99,,2013-08-08 22:00:00,
2013-08-08 16:37:00,83.0,52.0,30.02,NNW,343,4.0,9.0,33,0.00,,,-99.99,,2013-08-08 22:37:00,
2013-08-08 16:49:00,83.0,52.0,30.02,NNW,343,4.0,9.0,33,0.00,,,-99.99,,2013-08-08 22:49:00,
2013-08-08 16:57:00,83.0,52.0,30.02,NNW,343,4.0,9.0,33,0.00,,,-99.99,,2013-08-08 22:57:00,
2013-08-08 17:37:00,86.0,49.0,30.00,NNE,25,3.0,9.0,28,0.00,,,-99.99,,2013-08-08 23:37:00,
2013-08-08 17:49:00,86.0,49.0,30.00,NNE,25,3.0,9.0,28,0.00,,,-99.99,,2013-08-08 23:49:00,
2013-08-08 17:57:00,86.0,49.0,30.00,NNE,25,3.0,9.0,28,0.00,,,-99.99,,2013-08-08 23:57:00,
2013-08-08 19:00:00,84.0,44.0,29.99,NW,322,4.0,16.0,24,0.00,,,-99.99,,2013-08-09 01:00:00,
2013-08-08 19:37:00,84.0,44.0,29.99,NW,322,4.0,16.0,24,0.00,,,-99.99,,2013-08-09 01:37:00,
2013-08-08 19:46:00,84.0,44.0,29.99,NW,322,4.0,16.0,24,0.00,,,-99.99,,2013-08-09 01:46:00,
2013-08-08 19:59:00,84.0,44.0,29.99,NW,322,4.0,16.0,24,0.00,,,-99.99,,2013-08-09 01:59:00,
2013-08-08 20:00:00,80.0,43.0,30.00,NW,311,6.0,14.0,27,0.00,,,-99.99,,2013-08-09 02:00:00,
2013-08-08 20:39:00,80.0,43.0,30.00,NW,311,6.0,14.0,27,0.00,,,-99.99,,2013-08-09 02:39:00,
2013-08-08 20:47:00,80.0,43.0,30.00,NW,311,6.0,14.0,27,0.00,,,-99.99,,2013-08-09 02:47:00,
2013-08-08 21:00:00,77.0,43.0,29.99,SSE,167,3.0,8.0,30,0.00,,,-99.99,,2013-08-09 03:00:00,
2013-08-08 21:35:00,77.0,43.0,29.99,SSE,167,3.0,8.0,30,0.00,,,-99.99,,2013-08-09 03:35:00,
2013-08-08 21:47:00,77.0,43.0,29.99,SSE,167,3.0,8.0,30,0.00,,,-99.99,,2013-08-09 03:47:00,
2013-08-08 21:56:00,77.0,43.0,29.99,SSE,167,3.0,8.0,30,0.00,,,-99.99,,2013-08-09 03:56:00,
2013-08-08 22:00:00,72.0,46.0,30.01,SSE,156,3.0,6.0,38,0.00,,,-99.99,,2013-08-09 04:00:00,
2013-08-08 22:33:00,72.0,46.0,30.01,SSE,156,3.0,6.0,38,0.00,,,-99.99,,2013-08-09 04:33:00,
2013-08-08 22:43:00,72.0,46.0,30.01,SSE,156,3.0,6.0,38,0.00,,,-99.99,,2013-08-09 04:43:00,
2013-08-08 22:53:00,72.0,46.0,30.01,SSE,156,3.0,6.0,38,0.00,,,-99.99,,2013-08-09 04:53:00,
2013-08-08 23:00:00,71.0,47.0,30.02,SE,139,4.0,8.0,41,0.00,,,-99.99,,2013-08-09 05:00:00,
2013-08-08 23:33:00,71.0,47.0,30.02,SE,139,4.0,8.0,41,0.00,,,-99.99,,2013-08-09 05:33:00,
2013-08-08 23:43:00,71.0,47.0,30.02,SE,139,4.0,8.0,41,0.00,,,-99.99,,2013-08-09 05:43:00,
2013-08-08 23:52:00,71.0,47.0,30.02,SE,139,4.0,8.0,41,0.00,,,-99.99,,2013-08-09 05:52:00,